Menomonie, WI

3:20 AM CST on December 09, 2019 (GMT -0600)
Menomonie

Weather History for KLUM - October, 2019

Change the Weather History Date:

Wednesday, October 2, 2019

  Actual Average (WUND) Record (WUND)
Temperature  
Mean Temperature 46 °F -  
Max Temperature 49 °F - - (-1)
Min Temperature 43 °F - - (-1)
Degree Days  
Heating Degree Days 19    
Moisture  
Dew Point 44 °F    
Average Humidity 92    
Maximum Humidity 100    
Minimum Humidity 74    
Precipitation  
Precipitation 0.01 in - - ()
Sea Level Pressure  
Sea Level Pressure 30.05 in    
Wind  
Wind Speed 11 mph (NE)    
Max Wind Speed 16 mph    
Max Gust Speed 21 mph    
Visibility 8 miles    
Events Rain    
Averages and records for this station are not official NWS values.
T = Trace of Precipitation, MM = Missing Value Source: NWS Daily Summary

Daily Weather History Graph

Daily Weather History Graph

Search for Another Location

Airport or City:

Astronomy

Oct. 02, 2019 Rise Set
Actual Time 7:06 AM CDT 6:46 PM CDT
Civil Twilight 6:37 AM CDT 7:15 PM CDT
Nautical Twilight 6:03 AM CDT 7:49 PM CDT
Astronomical Twilight 5:28 AM CDT 8:23 PM CDT
Moon 11:43 AM CDT (10/2) 9:29 PM CDT (10/2)
Length of Visible Light 12h 38m
Length of Day
11h 40m
Waxing Crescent, 20% of the Moon is Illuminated
Oct 2
Waxing Crescent
Oct 5
First Quarter
Oct 13
Full
Oct 21
Last Quarter
Oct 27
New

Hourly Weather History & Observations

Time (CDT) Temp. Windchill Dew Point Humidity Pressure Visibility Wind Dir Wind Speed Gust Speed Precip Events Conditions
12:15 AM 46.8 °F - 44.8 °F 93% 30.01 in 10.0 mi North 10.4 mph - N/A   Overcast
12:35 AM 46.9 °F - 44.4 °F 91% 30.00 in 10.0 mi NNE 12.7 mph 20.7 mph N/A   Overcast
12:55 AM 47.1 °F - 44.1 °F 89% 30.01 in 10.0 mi NNE 13.8 mph 18.4 mph N/A   Overcast
1:15 AM 46.9 °F - 44.1 °F 90% 30.01 in 10.0 mi North 9.2 mph - N/A   Overcast
1:35 AM 46.9 °F - 44.4 °F 91% 30.01 in 10.0 mi North 12.7 mph 18.4 mph N/A   Overcast
1:55 AM 46.4 °F 40.7 °F 45.0 °F 95% 30.01 in 5.0 mi North 12.7 mph 19.6 mph N/A Rain Rain
2:15 AM 46.4 °F 41.9 °F 45.5 °F 97% 30.03 in 7.0 mi North 9.2 mph 16.1 mph N/A   Light Drizzle
2:35 AM 46.6 °F - 45.1 °F 95% 30.03 in 10.0 mi NNE 10.4 mph - N/A   Overcast
2:55 AM 46.6 °F - 45.1 °F 95% 30.03 in 7.0 mi North 6.9 mph - N/A   Drizzle
3:15 AM 46.4 °F 42.9 °F 45.7 °F 97% 30.04 in 7.0 mi North 6.9 mph - N/A   Drizzle
3:35 AM 46.4 °F 41.5 °F 45.7 °F 97% 30.03 in 7.0 mi North 10.4 mph - N/A   Drizzle
3:55 AM 46.4 °F 41.5 °F 45.5 °F 97% 30.03 in 10.0 mi North 10.4 mph - N/A   Overcast
4:15 AM 46.4 °F 41.9 °F 45.5 °F 97% 30.03 in 10.0 mi North 9.2 mph - N/A   Overcast
4:35 AM 46.4 °F 41.9 °F 45.5 °F 97% 30.04 in 10.0 mi North 9.2 mph - N/A   Light Drizzle
4:55 AM 46.6 °F - 45.5 °F 96% 30.04 in 10.0 mi North 9.2 mph - N/A   Overcast
5:15 AM 46.8 °F - 45.5 °F 95% 30.05 in 10.0 mi North 9.2 mph - N/A   Overcast
5:35 AM 46.9 °F - 45.0 °F 93% 30.04 in 10.0 mi NNE 10.4 mph 16.1 mph N/A   Overcast
5:55 AM 46.9 °F - 44.6 °F 92% 30.05 in 10.0 mi NNE 10.4 mph 17.3 mph N/A   Overcast
6:15 AM 46.9 °F - 44.6 °F 92% 30.05 in 10.0 mi NNE 8.1 mph - N/A   Overcast
6:35 AM 46.9 °F - 44.2 °F 90% 30.06 in 10.0 mi NE 8.1 mph - N/A   Overcast
6:55 AM 46.9 °F - 44.1 °F 90% 30.06 in 10.0 mi NNE 10.4 mph - N/A   Overcast
7:15 AM 46.8 °F - 43.9 °F 90% 30.07 in 10.0 mi NNE 8.1 mph - N/A   Overcast
7:35 AM 46.6 °F - 43.7 °F 90% 30.07 in 10.0 mi NE 10.4 mph - N/A   Overcast
7:55 AM 46.6 °F - 43.7 °F 90% 30.08 in 10.0 mi NNE 9.2 mph - N/A   Overcast
8:15 AM 46.8 °F - 43.3 °F 88% 30.09 in 10.0 mi NNE 9.2 mph - N/A   Overcast
8:35 AM 46.9 °F - 43.2 °F 87% 30.09 in 10.0 mi NNE 9.2 mph - 0.01 in   Overcast
8:55 AM 46.9 °F - 42.4 °F 84% 30.10 in 10.0 mi NNE 10.4 mph 17.3 mph 0.01 in   Overcast
9:15 AM 47.1 °F - 41.9 °F 82% 30.09 in 10.0 mi NNE 13.8 mph 18.4 mph N/A   Overcast
9:35 AM 47.3 °F - 40.8 °F 78% 30.10 in 10.0 mi NNE 12.7 mph 19.6 mph N/A   Overcast
9:55 AM 47.3 °F - 40.8 °F 78% 30.11 in 10.0 mi NE 10.4 mph 16.1 mph N/A   Overcast
10:15 AM 47.3 °F - 40.1 °F 76% 30.10 in 10.0 mi NNE 12.7 mph 20.7 mph N/A   Overcast
10:35 AM 47.3 °F - 40.5 °F 77% 30.09 in 10.0 mi NNE 9.2 mph - N/A   Overcast
10:55 AM 47.7 °F - 40.8 °F 77% 30.09 in 10.0 mi NNE 11.5 mph 18.4 mph N/A   Overcast
11:15 AM 47.7 °F - 40.3 °F 76% 30.09 in 10.0 mi NNE 11.5 mph 17.3 mph N/A   Overcast
11:35 AM 47.8 °F - 40.5 °F 76% 30.09 in 10.0 mi NE 8.1 mph - N/A   Overcast
11:55 AM 48.6 °F - 41.0 °F 75% 30.08 in 10.0 mi NNE 15.0 mph 20.7 mph N/A   Overcast
12:15 PM 48.4 °F - 40.6 °F 75% 30.09 in 10.0 mi NE 12.7 mph - N/A   Overcast
12:35 PM 49.3 °F - 41.2 °F 74% 30.08 in 10.0 mi NE 9.2 mph - N/A   Overcast
12:55 PM 48.4 °F - 41.5 °F 77% 30.08 in 7.0 mi NE 12.7 mph 19.6 mph N/A   Overcast
1:15 PM 47.3 °F - 42.1 °F 82% 30.07 in 4.0 mi ENE 13.8 mph 18.4 mph N/A   Haze
1:35 PM 46.6 °F - 42.4 °F 85% 30.07 in 5.0 mi NE 10.4 mph - N/A   Light Drizzle
1:55 PM 46.8 °F - 43.0 °F 87% 30.06 in 10.0 mi NE 6.9 mph - N/A   Overcast
2:15 PM 46.4 °F 41.1 °F 43.5 °F 90% 30.04 in 10.0 mi NE 11.5 mph 16.1 mph N/A   Light Drizzle
2:35 PM 46.2 °F 42.7 °F 44.1 °F 92% 30.06 in 7.0 mi NNE 6.9 mph 10.4 mph N/A Rain Rain
2:55 PM 45.7 °F 41.5 °F 44.4 °F 95% 30.08 in 7.0 mi North 8.1 mph - N/A Rain Light Rain
3:15 PM 45.0 °F 40.6 °F 44.4 °F 98% 30.09 in 2.0 mi NNW 8.1 mph - N/A Rain Rain
3:35 PM 44.8 °F 41.0 °F 44.6 °F 99% 30.08 in 3.0 mi North 6.9 mph - N/A Rain Heavy Rain
3:55 PM 44.8 °F 39.4 °F 44.6 °F 99% 30.07 in 7.0 mi NNE 10.4 mph - N/A Rain Rain
4:55 PM 44.6 °F 38.4 °F 43.9 °F 97% 30.05 in 10.0 mi NNE 12.7 mph 17.3 mph N/A Rain Light Rain
5:15 PM 44.6 °F 39.2 °F 43.9 °F 97% 30.05 in 7.0 mi NNE 10.4 mph - N/A   Drizzle
5:35 PM 44.4 °F 39.0 °F 43.9 °F 98% 30.05 in 4.0 mi NNE 10.4 mph 17.3 mph N/A Rain Rain
5:55 PM 44.2 °F 38.4 °F 43.9 °F 99% 30.04 in 5.0 mi NE 11.5 mph 16.1 mph N/A Rain Light Rain
6:15 PM 44.2 °F 39.7 °F 43.9 °F 99% 30.04 in 7.0 mi NE 8.1 mph - N/A Rain Light Rain
6:35 PM 44.6 °F 38.8 °F 44.1 °F 98% 30.03 in 5.0 mi ENE 11.5 mph - N/A Rain Rain
6:55 PM 44.6 °F 37.4 °F 44.2 °F 99% 30.03 in 5.0 mi ENE 16.1 mph - N/A Rain Rain
7:15 PM 44.6 °F 38.1 °F 44.2 °F 99% 30.03 in 10.0 mi ENE 13.8 mph - N/A   Overcast
7:35 PM 44.6 °F 38.1 °F 44.2 °F 99% 30.04 in 7.0 mi ENE 13.8 mph - N/A   Overcast
7:55 PM 44.6 °F 38.8 °F 44.2 °F 99% 30.03 in 7.0 mi ENE 11.5 mph - N/A   Overcast
8:15 PM 44.6 °F 39.2 °F 44.2 °F 99% 30.03 in 7.0 mi ENE 10.4 mph - N/A   Overcast
8:35 PM 44.6 °F 39.2 °F 44.2 °F 99% 30.03 in 7.0 mi ENE 10.4 mph - N/A   Overcast
8:55 PM 44.6 °F 39.2 °F 44.6 °F 100% 30.04 in 5.0 mi East 10.4 mph - N/A   Overcast
9:15 PM 44.6 °F 38.8 °F 44.2 °F 99% 30.03 in 10.0 mi East 11.5 mph 17.3 mph N/A   Overcast
9:35 PM 44.6 °F 38.4 °F 44.1 °F 98% 30.02 in 7.0 mi East 12.7 mph 19.6 mph N/A   Overcast
9:55 PM 44.6 °F 38.8 °F 43.7 °F 97% 30.02 in 10.0 mi East 11.5 mph - N/A Rain Light Rain
10:15 PM 44.2 °F 38.4 °F 43.7 °F 98% 30.01 in 7.0 mi East 11.5 mph 16.1 mph N/A   Overcast
10:35 PM 44.2 °F 41.0 °F 43.7 °F 98% 30.04 in 7.0 mi East 5.8 mph - N/A   Overcast
10:55 PM 43.9 °F 38.3 °F 43.7 °F 99% 30.01 in 3.0 mi ENE 10.4 mph - N/A Rain Rain
11:15 PM 43.7 °F 38.1 °F 43.7 °F 100% 30.01 in 3.0 mi ENE 10.4 mph - N/A   Light Drizzle
11:35 PM 43.7 °F 39.1 °F 43.7 °F 100% 30.01 in 5.0 mi East 8.1 mph - N/A   Overcast
11:55 PM 43.7 °F 39.1 °F 43.7 °F 100% 30.00 in 2.5 mi ENE 8.1 mph - N/A   Overcast